Time,TemperatureF,DewpointF,PressureIn,WindDirection,WindDirectionDegrees,WindSpeedMPH,WindSpeedGustMPH,Humidity,HourlyPrecipIn,Conditions,Clouds,dailyrainin,SoftwareType,DateUTC
2013-02-28 00:10:00,29.0,-99.9,-100.00,North,352,0.0,0.0,-999,-99.99,,,-99.99,,2013-02-28 08:10:00,
2013-02-28 00:22:00,30.0,-99.9,-100.00,WSW,258,0.0,0.0,-999,-99.99,,,-99.99,,2013-02-28 08:22:00,
2013-02-28 00:53:00,29.0,-99.9,-100.00,North,352,0.0,0.0,-999,-99.99,,,-99.99,,2013-02-28 08:53:00,
2013-02-28 01:04:00,29.0,-99.9,-100.00,North,352,0.0,0.0,-999,-99.99,,,-99.99,,2013-02-28 09:04:00,
2013-02-28 01:32:00,26.0,-99.9,-100.00,East,101,0.0,0.0,-999,-99.99,,,-99.99,,2013-02-28 09:32:00,
2013-02-28 01:53:00,26.0,-99.9,-100.00,WSW,258,0.0,0.0,-999,-99.99,,,-99.99,,2013-02-28 09:53:00,
2013-02-28 02:02:00,26.0,-99.9,-100.00,WSW,258,0.0,0.0,-999,-99.99,,,-99.99,,2013-02-28 10:02:00,
2013-02-28 02:20:00,26.0,-99.9,-100.00,North,351,0.0,0.0,-999,-99.99,,,-99.99,,2013-02-28 10:20:00,
2013-02-28 02:52:00,26.0,-99.9,-100.00,NW,307,0.0,0.0,-999,-99.99,,,-99.99,,2013-02-28 10:52:00,
2013-02-28 03:02:00,26.0,-99.9,-100.00,North,351,0.0,0.0,-999,-99.99,,,-99.99,,2013-02-28 11:02:00,
2013-02-28 04:00:00,25.0,-99.9,-100.00,SW,230,0.0,0.0,-999,-99.99,,,-99.99,,2013-02-28 12:00:00,
2013-02-28 04:53:00,25.0,-99.9,-100.00,SW,230,0.0,0.0,-999,-99.99,,,-99.99,,2013-02-28 12:53:00,
2013-02-28 06:30:00,24.0,-99.9,-100.00,SW,225,0.0,0.0,-999,-99.99,,,-99.99,,2013-02-28 14:30:00,
2013-02-28 07:22:00,24.0,-99.9,-100.00,SW,225,0.0,0.0,-999,-99.99,,,-99.99,,2013-02-28 15:22:00,
2013-02-28 08:02:00,32.0,-99.9,-100.00,ESE,104,0.0,0.0,-999,-99.99,,,-99.99,,2013-02-28 16:02:00,
2013-02-28 08:12:00,32.0,-99.9,-100.00,ESE,104,0.0,0.0,-999,-99.99,,,-99.99,,2013-02-28 16:12:00,
2013-02-28 12:10:00,63.0,-99.9,-100.00,South,188,0.0,0.0,-999,-99.99,,,-99.99,,2013-02-28 20:10:00,
2013-02-28 12:52:00,63.0,-99.9,-100.00,South,188,0.0,0.0,-999,-99.99,,,-99.99,,2013-02-28 20:52:00,
2013-02-28 13:02:00,63.0,-99.9,-100.00,South,188,0.0,0.0,-999,-99.99,,,-99.99,,2013-02-28 21:02:00,
2013-02-28 15:10:00,61.0,-99.9,-100.00,SW,224,0.0,0.0,-999,-99.99,,,-99.99,,2013-02-28 23:10:00,
2013-02-28 15:53:00,61.0,-99.9,-100.00,SW,224,0.0,0.0,-999,-99.99,,,-99.99,,2013-02-28 23:53:00,
2013-02-28 16:02:00,61.0,-99.9,-100.00,SW,224,0.0,0.0,-999,-99.99,,,-99.99,,2013-03-01 00:02:00,
2013-02-28 16:52:00,61.0,-99.9,-100.00,SW,227,0.0,0.0,-999,-99.99,,,-99.99,,2013-03-01 00:52:00,
2013-02-28 17:02:00,61.0,-99.9,-100.00,SW,227,0.0,0.0,-999,-99.99,,,-99.99,,2013-03-01 01:02:00,
2013-02-28 17:32:00,59.0,-99.9,-100.00,SW,215,0.0,0.0,-999,-99.99,,,-99.99,,2013-03-01 01:32:00,
2013-02-28 17:42:00,59.0,-99.9,-100.00,SW,215,0.0,0.0,-999,-99.99,,,-99.99,,2013-03-01 01:42:00,
2013-02-28 19:52:00,43.0,-99.9,-100.00,SW,227,0.0,0.0,-999,-99.99,,,-99.99,,2013-03-01 03:52:00,
2013-02-28 20:02:00,43.0,-99.9,-100.00,SW,227,0.0,0.0,-999,-99.99,,,-99.99,,2013-03-01 04:02:00,
2013-02-28 20:30:00,38.0,-99.9,-100.00,SW,228,0.0,0.0,-999,-99.99,,,-99.99,,2013-03-01 04:30:00,
2013-02-28 20:32:00,40.0,-99.9,-100.00,SSW,213,0.0,0.0,-999,-99.99,,,-99.99,,2013-03-01 04:32:00,
2013-02-28 21:03:00,39.0,-99.9,-100.00,SSW,199,0.0,0.0,-999,-99.99,,,-99.99,,2013-03-01 05:03:00,
2013-02-28 21:11:00,39.0,-99.9,-100.00,SSW,199,0.0,0.0,-999,-99.99,,,-99.99,,2013-03-01 05:11:00,
2013-02-28 21:23:00,38.0,-99.9,-100.00,SW,228,0.0,0.0,-999,-99.99,,,-99.99,,2013-03-01 05:23:00,
2013-02-28 22:02:00,36.0,-99.9,-100.00,ESE,107,0.0,0.0,-999,-99.99,,,-99.99,,2013-03-01 06:02:00,